N716SC KSAN-KSEE

Flight info

Callsign N716SC
Flight time 0h 15m
Altitude VFR/055
Route
Aircraft C172/L-VGD/C

Departure

Time 2026-05-05 05:53
Airport San Diego International Airport (KSAN)

Arrival

Time 2026-05-05 06:08
Airport Gillespie Field (KSEE)
Time Latitude Longitude Altitude Speed Heading
2026-05-05 05:44 32.73461 -117.17953 21 ft 0 kts 325°
2026-05-05 05:46 32.73466 -117.17954 21 ft 2 kts
2026-05-05 05:46 32.73472 -117.17952 21 ft 0 kts 49°
2026-05-05 05:49 32.73473 -117.17962 21 ft 0 kts 159°
2026-05-05 05:50 32.73464 -117.17959 22 ft 6 kts 160°
2026-05-05 05:50 32.73390 -117.17941 21 ft 14 kts 177°
2026-05-05 05:50 32.73293 -117.17973 19 ft 14 kts 197°
2026-05-05 05:50 32.73233 -117.17973 17 ft 8 kts 130°
2026-05-05 05:51 32.73214 -117.17899 17 ft 11 kts 105°
2026-05-05 05:51 32.73185 -117.17789 18 ft 16 kts 105°
2026-05-05 05:51 32.73142 -117.17672 18 ft 12 kts 150°
2026-05-05 05:51 32.73063 -117.17690 16 ft 13 kts 216°
2026-05-05 05:52 32.73076 -117.17819 15 ft 31 kts 286°
2026-05-05 05:52 32.73181 -117.18240 30 ft 72 kts 284°
2026-05-05 05:52 32.73335 -117.18870 190 ft 82 kts 283°
2026-05-05 05:52 32.73485 -117.19489 494 ft 76 kts 283°
2026-05-05 05:53 32.73639 -117.20075 779 ft 72 kts 284°
2026-05-05 05:53 32.73882 -117.20601 997 ft 80 kts 323°
2026-05-05 05:53 32.74433 -117.20642 1249 ft 87 kts 17°
2026-05-05 05:53 32.75021 -117.20356 1466 ft 95 kts 26°
2026-05-05 05:54 32.75433 -117.19743 1685 ft 99 kts 78°
2026-05-05 05:54 32.75316 -117.18971 1941 ft 95 kts 122°
2026-05-05 05:54 32.74995 -117.18339 2241 ft 87 kts 126°
2026-05-05 05:54 32.74718 -117.17711 2491 ft 85 kts 129°
2026-05-05 05:55 32.74391 -117.17128 2735 ft 82 kts 127°
2026-05-05 05:55 32.74108 -117.16551 2960 ft 83 kts 126°
2026-05-05 05:55 32.73827 -117.15906 3139 ft 88 kts 123°
2026-05-05 05:55 32.73542 -117.15269 3353 ft 87 kts 124°
2026-05-05 05:56 32.73251 -117.14631 3547 ft 88 kts 124°
2026-05-05 05:56 32.72961 -117.13990 3733 ft 88 kts 124°
2026-05-05 05:56 32.72676 -117.13352 3920 ft 89 kts 124°
2026-05-05 05:56 32.72387 -117.12699 4110 ft 90 kts 118°
2026-05-05 05:57 32.72469 -117.11956 4281 ft 94 kts 73°
2026-05-05 05:57 32.72727 -117.11251 4463 ft 93 kts 60°
2026-05-05 05:57 32.73030 -117.10558 4655 ft 95 kts 62°
2026-05-05 05:57 32.73330 -117.09857 4829 ft 95 kts 63°
2026-05-05 05:58 32.73628 -117.09166 4984 ft 96 kts 62°
2026-05-05 05:58 32.73927 -117.08455 5139 ft 97 kts 63°
2026-05-05 05:58 32.74232 -117.07743 5285 ft 97 kts 62°
2026-05-05 05:58 32.74542 -117.07024 5444 ft 98 kts 62°
2026-05-05 05:59 32.74870 -117.06261 5503 ft 110 kts 62°
2026-05-05 05:59 32.75215 -117.05439 5506 ft 113 kts 63°
2026-05-05 05:59 32.75563 -117.04608 5455 ft 111 kts 63°
2026-05-05 05:59 32.75917 -117.03768 5256 ft 115 kts 58°
2026-05-05 06:00 32.76399 -117.03025 5096 ft 112 kts 50°
2026-05-05 06:00 32.76899 -117.02284 4760 ft 119 kts 50°
2026-05-05 06:00 32.77405 -117.01538 4477 ft 117 kts 50°
2026-05-05 06:00 32.77918 -117.00789 4174 ft 117 kts 50°
2026-05-05 06:01 32.78396 -117.00019 3885 ft 114 kts 55°
2026-05-05 06:01 32.78853 -116.99250 3557 ft 113 kts 55°
2026-05-05 06:01 32.79274 -116.98540 3390 ft 100 kts 56°
2026-05-05 06:01 32.79517 -116.97761 3105 ft 100 kts 92°
2026-05-05 06:02 32.79265 -116.97059 2870 ft 88 kts 150°
2026-05-05 06:02 32.78728 -116.97040 2566 ft 85 kts 219°
2026-05-05 06:02 32.78577 -116.97687 2298 ft 90 kts 289°
2026-05-05 06:02 32.79098 -116.98109 2029 ft 98 kts 349°
2026-05-05 06:03 32.79786 -116.98163 1797 ft 98 kts 354°
2026-05-05 06:03 32.80435 -116.98298 1531 ft 92 kts 346°
2026-05-05 06:03 32.81054 -116.98150 1356 ft 102 kts 44°
2026-05-05 06:03 32.81276 -116.97357 1319 ft 101 kts 87°
2026-05-05 06:04 32.81288 -116.96533 1223 ft 99 kts 98°
2026-05-05 06:04 32.81241 -116.95773 1214 ft 87 kts 65°
2026-05-05 06:04 32.81712 -116.95363 1094 ft 84 kts 15°
2026-05-05 06:04 32.82159 -116.95612 976 ft 77 kts 304°
2026-05-05 06:05 32.82489 -116.96154 756 ft 83 kts 284°
2026-05-05 06:05 32.82618 -116.96819 649 ft 93 kts 277°
2026-05-05 06:05 32.82733 -116.97551 886 ft 88 kts 277°
2026-05-05 06:05 32.82829 -116.98253 1167 ft 83 kts 275°
2026-05-05 06:06 32.82911 -116.98935 1406 ft 84 kts 282°
2026-05-05 06:06 32.83344 -116.99420 1430 ft 100 kts 344°
2026-05-05 06:06 32.84019 -116.99209 1432 ft 105 kts 45°
2026-05-05 06:06 32.84152 -116.98442 1435 ft 103 kts 99°
2026-05-05 06:07 32.84014 -116.97593 1354 ft 103 kts 106°
2026-05-05 06:07 32.83776 -116.96831 1190 ft 95 kts 121°
2026-05-05 06:07 32.83470 -116.96173 1098 ft 86 kts 121°
2026-05-05 06:07 32.83028 -116.95928 988 ft 75 kts 197°
2026-05-05 06:08 32.82690 -116.96332 629 ft 75 kts 287°
2026-05-05 06:08 32.82731 -116.96911 385 ft 63 kts 276°
2026-05-05 06:08 32.82800 -116.97325 370 ft 42 kts 281°
2026-05-05 06:08 32.82821 -116.97537 371 ft 21 kts 240°
2026-05-05 06:09 32.82799 -116.97578 370 ft 0 kts 240°
2026-05-05 06:09 32.82797 -116.97581 370 ft 3 kts 237°
2026-05-05 06:09 32.82777 -116.97605 370 ft 6 kts 212°
2026-05-05 06:09 32.82699 -116.97626 370 ft 11 kts 173°
2026-05-05 06:10 32.82671 -116.97584 371 ft 9 kts 96°
2026-05-05 06:10 32.82641 -116.97513 371 ft 10 kts 131°
2026-05-05 06:10 32.82600 -116.97450 372 ft 10 kts 176°
2026-05-05 06:10 32.82582 -116.97454 373 ft 0 kts 194°